{"data":{"norad_id":56546,"intl_designator":"2023-065AV","name":"STARLINK-6187","alt_names":[],"object_type":"PAYLOAD","status":"ACTIVE","operator":null,"country":"US","launch_date":"2023-05-14","launch_site_code":"AFETR","launch_vehicle":null,"mission":null,"orbit_class":"UNKNOWN","rcs_meters":null,"size_class":null,"mass_kg":null,"dimensions":null,"purposes":["comms"],"wikipedia_slug":null,"has_3d_model":false,"image_url":null,"decayed_at":null,"tle_current":{"epoch":"2026-09-20T05:45:18.230976Z","epoch_age_seconds":137297,"freshness":"FRESH","line1":"1 56546U 23065AV  26263.23979434  .00014807  00000+0  54622-3 0  9993","line2":"2 56546  43.0031 205.0835 0002455 285.4219  74.6361 15.27597923186225","mean_motion":15.27597923,"eccentricity":0.0002455,"inclination_deg":43.0031,"raan_deg":205.0835,"arg_perigee_deg":285.4219,"mean_anomaly_deg":74.6361,"bstar":0.00054622,"rev_number":18622,"period_min":94.265642700799,"perigee_km":481.31102064338,"apogee_km":484.67983666585,"semimajor_km":6861.1324286546,"source":"CELESTRAK","updated_at":"2026-09-21T09:00:33.477735Z"}}}